This is the latest recevied weather packets stored in our database for station/object G4WLC-1. If no packets are shown the sender has not sent any weather packets the latest 10 day(s).
| Time | Temp. | Humidity | Pressure | Rain* | Wind** | Luminosity | Snow |
|---|---|---|---|---|---|---|---|
| 1788088936 | 19.44° C | 80% | 1008.2 hPa | 0 mm | - | - | - |
| 1788088636 | 18.89° C | 83% | 1008.3 hPa | 0 mm | - | - | - |
| 1788088336 | 18.33° C | 84% | 1008.3 hPa | 0 mm | - | - | - |
| 1788088036 | 18.33° C | 84% | 1008.5 hPa | 0 mm | - | - | - |
| 1788087736 | 18.33° C | 83% | 1008.7 hPa | 0 mm | - | - | - |
| 1788087436 | 18.33° C | 83% | 1008.5 hPa | 0 mm | - | - | - |
| 1788087136 | 18.33° C | 82% | 1008.6 hPa | 0 mm | - | - | - |
| 1788086836 | 18.33° C | 83% | 1008.6 hPa | 0 mm | - | - | - |
| 1788086536 | 18.33° C | 83% | 1008.7 hPa | 0 mm | - | - | - |
| 1788086236 | 18.33° C | 81% | 1009 hPa | 0 mm | - | - | - |
| 1788085936 | 18.33° C | 81% | 1008.8 hPa | 0 mm | - | - | - |
| 1788085636 | 18.89° C | 80% | 1008.8 hPa | 0 mm | - | - | - |
| 1788085336 | 19.44° C | 79% | 1008.8 hPa | 0 mm | - | - | - |
| 1788085036 | 19.44° C | 78% | 1008.8 hPa | 0 mm | - | - | - |
| 1788084736 | 20° C | 79% | 1008.8 hPa | 0 mm | - | - | - |
| 1788084436 | 19.44° C | 78% | 1009.1 hPa | 0 mm | - | - | - |
| 1788084136 | 19.44° C | 80% | 1009.1 hPa | 0 mm | - | - | - |
| 1788083836 | 19.44° C | 79% | 1009 hPa | 0 mm | - | - | - |
| 1788083536 | 19.44° C | 79% | 1008.9 hPa | 0 mm | - | - | - |
| 1788083236 | 18.89° C | 81% | 1008.8 hPa | 0 mm | - | - | - |
| 1788082936 | 18.89° C | 81% | 1009.1 hPa | 0 mm | - | - | - |
| 1788082636 | 18.89° C | 82% | 1009 hPa | 0 mm | - | - | - |
| 1788082336 | 18.33° C | 83% | 1009.1 hPa | 0 mm | - | - | - |
| 1788082036 | 17.78° C | 83% | 1009.2 hPa | 0 mm | - | - | - |
| 1788081736 | 17.78° C | 82% | 1009.1 hPa | 0 mm | - | - | - |
* Rain latest hour (hover to see other rain measurements)
** Current wind speed in m/s (hover to see current wind gust speed)